SBONWEB Weather Reports


time (UTC)temp
C
wind
direction
speed
KPH
gust
KPH
rain 1hr
cm
rain 24hr
cm
rain mn
cm
humidity
%
barometer
mb
20260905043604 18 0 0.0 0.0 0.00 0.00 0.00 83 1017.3
20260905042703 18 228 1.6 3.2 0.00 0.00 0.00 82 1017.2
20260905041803 19 216 1.6 4.8 0.00 0.00 0.00 81 1017.2
20260905040903 20 257 3.2 4.8 0.00 0.00 0.00 80 1017.2
20260905040003 20 353 1.6 4.8 0.00 0.00 0.00 80 1017.2
20260905035403 20 344 0.0 4.8 0.00 0.00 0.00 81 1017.2
20260905034503 19 0 0.0 0.0 0.00 0.00 0.00 81 1017.3
20260905033604 19 0 0.0 0.0 0.00 0.00 0.00 81 1017.3
20260905032703 19 0 0.0 0.0 0.00 0.00 0.00 80 1017.6
20260905031803 20 0 0.0 0.0 0.00 0.00 0.00 79 1017.5
20260905030903 20 0 0.0 0.0 0.00 0.00 0.00 78 1017.7
20260905030004 20 0 0.0 0.0 0.00 0.00 0.00 77 1017.7
20260905025403 20 0 0.0 0.0 0.00 0.00 0.00 77 1017.7
20260905024503 21 185 1.6 4.8 0.00 0.00 0.00 75 1017.8
20260905023603 22 354 4.8 9.7 0.00 0.00 0.00 72 1017.7
20260905022704 22 6 6.4 11.3 0.00 0.00 0.00 72 1017.6
20260905022019 22 3 6.4 12.9 0.00 0.00 0.00 72 1017.5
20260905020903 22 12 8.0 14.5 0.00 0.00 0.00 71 1017.4
20260905015403 22 350 9.7 16.1 0.00 0.00 0.00 71 1017.7
20260905014503 22 357 8.0 14.5 0.00 0.00 0.00 71 1017.7
20260905013603 22 315 6.4 12.9 0.00 0.00 0.00 73 1017.8
20260905012703 22 9 4.8 12.9 0.00 0.00 0.00 72 1017.8
20260905011804 22 5 4.8 8.0 0.00 0.00 0.00 72 1017.7
20260905010903 22 17 6.4 11.3 0.00 0.00 0.00 71 1017.9
20260905010003 22 12 4.8 12.9 0.00 0.00 0.00 71 1017.9
20260905005404 22 359 4.8 11.3 0.00 0.00 0.00 72 1018.0
20260905004503 21 10 3.2 11.3 0.00 0.00 0.00 72 1018.0
20260905003603 21 18 3.2 6.4 0.00 0.00 0.00 71 1017.9
20260905002703 21 6 4.8 9.7 0.00 0.00 0.00 71 1018.1
20260905001803 21 356 3.2 9.7 0.00 0.00 0.00 71 1018.1
20260905000904 21 7 0.0 6.4 0.00 0.00 0.00 69 1018.2
20260905000003 21 0 0.0 0.0 0.00 0.00 0.00 67 1018.3
20260904235403 21 0 0.0 0.0 0.00 0.00 0.00 67 1018.3
20260904234503 21 13 0.0 1.6 0.00 0.00 0.00 66 1018.2
20260904233817 21 343 0.0 1.6 0.00 0.00 0.00 65 1018.5
20260904232703 21 0 0.0 0.0 0.00 0.00 0.00 64 1018.4
20260904231803 21 0 0.0 0.0 0.00 0.00 0.00 63 1018.5
20260904230903 21 0 0.0 0.0 0.00 0.00 0.00 63 1018.3
20260904230004 21 0 0.0 0.0 0.00 0.00 0.00 62 1018.4
20260904225403 21 0 0.0 0.0 0.00 0.00 0.00 62 1018.6
20260904224503 21 0 0.0 0.0 0.00 0.00 0.00 63 1018.7
20260904223603 21 0 0.0 0.0 0.00 0.00 0.00 64 1018.7
20260904222703 21 0 0.0 0.0 0.00 0.00 0.00 64 1018.6
20260904221803 21 0 0.0 0.0 0.00 0.00 0.00 64 1018.6
20260904220903 21 0 0.0 0.0 0.00 0.00 0.00 65 1018.6
20260904220004 22 0 0.0 0.0 0.00 0.00 0.00 65 1018.6
20260904215403 22 0 0.0 0.0 0.00 0.00 0.00 65 1018.7
20260904214503 21 0 0.0 0.0 0.00 0.00 0.00 66 1018.7
20260904213819 21 0 0.0 0.0 0.00 0.00 0.00 68 1018.7
20260904212918 21 0 0.0 0.0 0.00 0.00 0.00 67 1018.8
20260904211803 21 0 0.0 0.0 0.00 0.00 0.00 67 1019.0
20260904210904 22 0 0.0 0.0 0.00 0.00 0.00 67 1018.8
20260904210003 22 0 0.0 0.0 0.00 0.00 0.00 68 1019.0
20260904205403 22 0 0.0 0.0 0.00 0.00 0.00 69 1019.1
20260904204503 22 0 0.0 0.0 0.00 0.00 0.00 67 1019.0
20260904203603 22 0 0.0 0.0 0.00 0.00 0.00 63 1019.1
20260904202704 22 0 0.0 0.0 0.00 0.00 0.00 68 1019.2
20260904202017 22 0 0.0 0.0 0.00 0.00 0.00 67 1019.2
20260904200904 22 0 0.0 0.0 0.00 0.00 0.00 71 1019.3
20260904200003 23 0 0.0 0.0 0.00 0.00 0.00 73 1019.2
20260904195403 23 0 0.0 0.0 0.00 0.00 0.00 73 1019.1
20260904194503 23 0 0.0 0.0 0.00 0.00 0.00 74 1019.0
20260904193603 23 0 0.0 0.0 0.00 0.00 0.00 74 1019.0
20260904192703 23 0 0.0 0.0 0.00 0.00 0.00 73 1018.8
20260904191804 23 0 0.0 0.0 0.00 0.00 0.00 72 1018.7
20260904190903 23 0 0.0 0.0 0.00 0.00 0.00 71 1018.4
20260904190004 23 0 0.0 0.0 0.00 0.00 0.00 71 1018.4
20260904185403 24 0 0.0 0.0 0.00 0.00 0.00 71 1018.5
20260904184718 24 0 0.0 0.0 0.00 0.00 0.00 70 1018.3
20260904183603 24 0 0.0 0.0 0.00 0.00 0.00 70 1018.3
20260904182703 25 0 0.0 0.0 0.00 0.00 0.00 69 1018.3
20260904181804 25 0 0.0 0.0 0.00 0.00 0.00 69 1018.3
20260904180903 25 0 0.0 0.0 0.00 0.00 0.00 67 1018.3
20260904180003 26 0 0.0 0.0 0.00 0.00 0.00 65 1018.3
20260904175404 26 0 0.0 0.0 0.00 0.00 0.00 63 1018.3
20260904174503 27 0 0.0 0.0 0.00 0.00 0.00 61 1018.3
20260904173603 28 169 1.6 1.6 0.00 0.00 0.00 58 1018.3
20260904172703 28 169 1.6 1.6 0.00 0.00 0.00 57 1018.1
20260904171803 30 168 0.0 3.2 0.00 0.00 0.00 56 1018.0
20260904170904 30 168 1.6 3.2 0.00 0.00 0.00 52 1018.1
20260904170003 30 163 1.6 6.4 0.00 0.00 0.00 54 1018.2
20260904165404 30 153 1.6 6.4 0.00 0.00 0.00 50 1018.2
20260904164503 30 149 1.6 4.8 0.00 0.00 0.00 50 1018.2
20260904163603 30 193 1.6 6.4 0.00 0.00 0.00 52 1018.2
20260904162703 31 187 1.6 6.4 0.00 0.00 0.00 48 1018.2
20260904161803 31 172 1.6 6.4 0.00 0.00 0.00 47 1018.3
20260904160903 32 190 1.6 4.8 0.00 0.00 0.00 49 1018.3
20260904160218 31 164 3.2 6.4 0.00 0.00 0.00 48 1018.3
20260904155403 31 159 3.2 6.4 0.00 0.00 0.00 46 1018.5
20260904154503 31 147 3.2 4.8 0.00 0.00 0.00 44 1018.6
20260904153603 31 145 3.2 8.0 0.00 0.00 0.00 44 1018.7
20260904152704 32 161 1.6 8.0 0.00 0.00 0.00 42 1018.8
20260904151803 32 172 3.2 6.4 0.00 0.00 0.00 43 1018.8
20260904150903 31 171 3.2 6.4 0.00 0.00 0.00 45 1018.8
20260904150003 31 151 3.2 9.7 0.00 0.00 0.00 43 1018.8
20260904145403 31 144 3.2 9.7 0.00 0.00 0.00 44 1018.8
20260904144503 31 140 3.2 9.7 0.00 0.00 0.00 43 1018.9
20260904143818 31 161 4.8 9.7 0.00 0.00 0.00 45 1019.0
20260904142703 31 134 3.2 12.9 0.00 0.00 0.00 46 1018.9
20260904141804 31 160 3.2 9.7 0.00 0.00 0.00 45 1019.1
20260904140903 31 165 3.2 9.7 0.00 0.00 0.00 44 1019.0
20260904140217 31 123 3.2 9.7 0.00 0.00 0.00 46 1019.0
20260904135617 31 115 4.8 9.7 0.00 0.00 0.00 47 1019.0
20260904134503 31 156 4.8 11.3 0.00 0.00 0.00 46 1019.1
20260904133817 31 110 4.8 11.3 0.00 0.00 0.00 45 1019.1
20260904132703 30 100 6.4 14.5 0.00 0.00 0.00 49 1019.1
20260904131803 30 115 6.4 14.5 0.00 0.00 0.00 47 1019.3
20260904130903 30 151 3.2 11.3 0.00 0.00 0.00 48 1019.3
20260904130004 30 150 3.2 9.7 0.00 0.00 0.00 48 1019.4
20260904125403 30 145 4.8 11.3 0.00 0.00 0.00 48 1019.5
20260904124718 30 177 6.4 12.9 0.00 0.00 0.00 48 1019.6
20260904123604 30 147 4.8 14.5 0.00 0.00 0.00 47 1019.8
20260904122703 30 137 4.8 12.9 0.00 0.00 0.00 49 1020.0
20260904121803 30 100 4.8 12.9 0.00 0.00 0.00 50 1020.0
20260904120903 29 127 4.8 12.9 0.00 0.00 0.00 49 1020.0
20260904120003 30 96 4.8 12.9 0.00 0.00 0.00 49 1020.1
20260904115403 29 91 4.8 12.9 0.00 0.00 0.00 50 1020.1
20260904114503 29 151 3.2 11.3 0.00 0.00 0.00 49 1020.2
20260904113603 29 133 4.8 9.7 0.00 0.00 0.00 49 1020.3
20260904112703 29 95 8.0 16.1 0.00 0.00 0.00 49 1020.2
20260904111803 29 100 3.2 16.1 0.00 0.00 0.00 49 1020.3
20260904110904 30 121 1.6 4.8 0.00 0.00 0.00 48 1020.3
20260904110003 29 122 3.2 4.8 0.00 0.00 0.00 49 1020.4
20260904105403 29 120 3.2 6.4 0.00 0.00 0.00 52 1020.4
20260904104504 28 135 4.8 9.7 0.00 0.00 0.00 51 1020.5
20260904103603 28 133 3.2 11.3 0.00 0.00 0.00 50 1020.5
20260904102703 28 130 3.2 9.7 0.00 0.00 0.00 49 1020.7
20260904101803 28 76 3.2 9.7 0.00 0.00 0.00 51 1020.8
20260904100903 28 132 3.2 9.7 0.00 0.00 0.00 52 1020.9
20260904100003 28 125 3.2 11.3 0.00 0.00 0.00 50 1021.0
20260904095403 28 131 3.2 6.4 0.00 0.00 0.00 50 1021.0
20260904094717 28 137 3.2 6.4 0.00 0.00 0.00 51 1021.1
20260904093604 28 134 3.2 8.0 0.00 0.00 0.00 50 1021.3
20260904092703 28 149 1.6 6.4 0.00 0.00 0.00 50 1021.2
20260904091803 28 50 1.6 4.8 0.00 0.00 0.00 49 1021.3
20260904090903 27 166 1.6 4.8 0.00 0.00 0.00 50 1021.2
20260904090003 27 96 3.2 9.7 0.00 0.00 0.00 50 1021.2
20260904085403 27 96 3.2 9.7 0.00 0.00 0.00 49 1021.2
20260904084503 26 176 3.2 8.0 0.00 0.00 0.00 52 1021.1
20260904083604 26 93 4.8 9.7 0.00 0.00 0.00 50 1021.2
20260904082703 27 61 1.6 9.7 0.00 0.00 0.00 50 1021.1
20260904081803 26 28 1.6 6.4 0.00 0.00 0.00 53 1021.1
20260904080903 26 242 1.6 6.4 0.00 0.00 0.00 53 1021.0
20260904080004 26 61 1.6 4.8 0.00 0.00 0.00 53 1021.1
20260904075403 26 21 3.2 3.2 0.00 0.00 0.00 55 1021.1
20260904074503 26 35 3.2 4.8 0.00 0.00 0.00 54 1021.1
20260904073603 25 317 3.2 6.4 0.00 0.00 0.00 58 1021.1
20260904072703 25 330 3.2 6.4 0.00 0.00 0.00 59 1021.1
20260904071803 24 7 4.8 6.4 0.00 0.00 0.00 59 1021.0
20260904070903 23 3 6.4 11.3 0.00 0.00 0.00 59 1020.9
20260904070216 23 13 6.4 11.3 0.00 0.00 0.00 60 1020.9
20260904065403 23 21 6.4 11.3 0.00 0.00 0.00 61 1020.9
20260904064718 23 15 4.8 11.3 0.00 0.00 0.00 62 1020.9
20260904063603 22 17 4.8 8.0 0.00 0.00 0.00 63 1020.8
20260904062703 22 354 6.4 9.7 0.00 0.00 0.00 63 1020.7
20260904061803 22 341 6.4 9.7 0.00 0.00 0.00 64 1020.6
20260904061117 22 359 6.4 9.7 0.00 0.00 0.00 65 1020.7
20260904060003 21 14 8.0 12.9 0.00 0.00 0.00 64 1020.7
20260904055403 21 19 8.0 14.5 0.00 0.00 0.00 64 1020.6
20260904054503 21 17 9.7 12.9 0.00 0.00 0.00 65 1020.5
20260904053603 21 9 9.7 14.5 0.00 0.00 0.00 64 1020.6
20260904052703 21 353 8.0 16.1 0.00 0.00 0.00 65 1020.5
20260904051803 20 347 4.8 14.5 0.00 0.00 0.00 68 1020.4
20260904051117 20 14 4.8 11.3 0.00 0.00 0.00 71 1020.3
20260904050003 18 7 3.2 12.9 0.00 0.00 0.00 73 1020.2
20260904045403 18 339 1.6 6.4 0.00 0.00 0.00 73 1020.2
20260904044503 18 334 0.0 3.2 0.00 0.00 0.00 73 1020.1